Weather History for Pineville, WV

Change the Weather History Date:

Saturday, December 7, 2013

  Actual Average (KBKW) Record (KBKW)
Temperature  
Mean Temperature 34 °F 36 °F  
Max Temperature 37 °F 44 °F 74 °F (1951)
Min Temperature 32 °F 28 °F -1 °F (1977)
Degree Days  
Heating Degree Days 30 29  
Month to date heating degree days 194  
Since 1 July heating degree days 1334  
Cooling Degree Days 0 0  
Month to date cooling degree days 0  
Year to date cooling degree days 557  
Moisture  
Dew Point 32 °F    
Average Humidity 95    
Maximum Humidity 100    
Minimum Humidity 86    
Precipitation  
Precipitation 0.00 in 0.10 in 1.66 in (2011)
Month to date precipitation 0.69  
Year to date precipitation 38.88  
Snow  
Snow 0.00 in - - ()
Month to date snowfall  
Since 1 September snowfall  
Snow Depth -    
Sea Level Pressure  
Sea Level Pressure 30.42 in    
Wind  
Wind Speed - (North)    
Max Wind Speed -    
Max Gust Speed -    
Visibility 8 miles    
Events Snow    
T = Trace of Precipitation, MM = Missing Value Source: NWS Daily Summary

Daily Weather History Graph

Daily Weather History Graph

Search for Another Location

Airport:

Trip Planner

Search our weather history database for the weather conditions in past years. The results will help you decide how hot, cold, wet, or windy it might be!

Date:

Astronomy

Dec. 07, 2013 Rise Set
Actual Time 7:27 AM EST 5:07 PM EST
Civil Twilight 6:58 AM EST 5:36 PM EST
Nautical Twilight 6:26 AM EST 6:09 PM EST
Astronomical Twilight 5:54 AM EST 6:41 PM EST
Moon 11:16 AM EST (12/7) 10:43 PM EST (12/7)
Length of Visible Light 10h 37m
Length of Day
9h 39m
Waxing Crescent, 29% of the Moon is Illuminated
Dec 7
Waxing Crescent
Dec 9
First Quarter
Dec 17
Full
Dec 25
Last Quarter
Jan 1
New

Hourly Weather History & Observations

Time (EST) Temp. Dew Point Humidity Pressure Visibility Wind Dir Wind Speed Gust Speed Precip Events Conditions
12:15 AM 37.6 °F 37.4 °F 99% 30.23 in 10.0 mi North - - N/A   Overcast
12:35 AM 37.6 °F 37.4 °F 99% 30.24 in 10.0 mi North - - N/A   Overcast
12:55 AM 37.0 °F 36.9 °F 99% 30.25 in 10.0 mi North - - N/A   Overcast
1:15 AM 36.7 °F 36.3 °F 99% 30.25 in 10.0 mi North - - N/A   Overcast
1:35 AM 36.0 °F 36.0 °F 100% 30.27 in 5.0 mi North - - N/A   Overcast
1:55 AM 35.8 °F 35.8 °F 100% 30.27 in 3.0 mi North - - N/A   Overcast
2:15 AM 35.6 °F 35.6 °F 100% 30.27 in 4.0 mi North - - N/A   Overcast
2:35 AM 35.6 °F 35.6 °F 100% 30.28 in 3.0 mi North - - N/A   Overcast
2:55 AM 35.6 °F 35.6 °F 100% 30.30 in 5.0 mi North - - N/A   Overcast
3:15 AM 35.6 °F 35.6 °F 100% 30.30 in 7.0 mi North - - N/A   Overcast
3:35 AM 35.2 °F 35.2 °F 100% 30.31 in 10.0 mi North - - N/A   Overcast
3:55 AM 35.1 °F 35.1 °F 100% 30.32 in 10.0 mi North - - N/A   Overcast
4:15 AM 34.9 °F 34.7 °F 99% 30.32 in 10.0 mi North - - N/A   Overcast
4:35 AM 34.7 °F 34.3 °F 99% 30.33 in 7.0 mi North - - N/A   Overcast
4:55 AM 35.1 °F 34.7 °F 99% 30.33 in 4.0 mi North - - N/A   Overcast
5:15 AM 34.7 °F 34.5 °F 99% 30.34 in 7.0 mi North - - N/A   Overcast
5:35 AM 34.7 °F 34.5 °F 99% 30.35 in 5.0 mi North - - N/A   Overcast
5:55 AM 34.7 °F 34.7 °F 100% 30.37 in 2.5 mi North - - N/A   Overcast
6:15 AM 34.3 °F 34.3 °F 100% 30.37 in 4.0 mi North - - N/A   Overcast
6:35 AM 34.3 °F 34.3 °F 100% 30.38 in 4.0 mi North - - N/A   Overcast
6:55 AM 34.3 °F 34.3 °F 100% 30.39 in 5.0 mi North - - N/A   Overcast
7:15 AM 34.3 °F 34.3 °F 100% 30.39 in 7.0 mi North - - N/A   Overcast
7:35 AM 34.7 °F 34.3 °F 99% 30.40 in 10.0 mi North - - N/A   Overcast
7:55 AM 34.5 °F 34.2 °F 99% 30.42 in 10.0 mi North - - N/A   Overcast
8:15 AM 34.3 °F 33.6 °F 97% 30.42 in 10.0 mi North - - N/A   Overcast
8:35 AM 34.0 °F 33.3 °F 97% 30.43 in 1.8 mi North - - N/A Snow Light Snow
8:55 AM 34.0 °F 33.6 °F 99% 30.44 in 2.5 mi North - - N/A Snow Light Snow
9:15 AM 34.0 °F 33.3 °F 97% 30.45 in 2.0 mi North - - N/A Snow Light Snow
9:35 AM 34.0 °F 33.4 °F 98% 30.45 in 1.8 mi North - - N/A Snow Light Snow
9:55 AM 34.0 °F 33.3 °F 97% 30.47 in 2.0 mi North - - N/A Snow Light Snow
10:15 AM 33.8 °F 32.9 °F 96% 30.47 in 5.0 mi North - - N/A   Overcast
10:35 AM 34.2 °F 33.1 °F 96% 30.48 in 10.0 mi North - - N/A   Overcast
10:55 AM 34.2 °F 32.9 °F 95% 30.48 in 10.0 mi North - - N/A   Overcast
11:15 AM 33.8 °F 32.9 °F 96% 30.48 in 10.0 mi North - - N/A   Overcast
11:35 AM 32.9 °F 32.0 °F 96% 30.47 in 10.0 mi North - - N/A   Overcast
11:55 AM 33.1 °F 32.0 °F 96% 30.47 in 10.0 mi North - - N/A   Overcast
12:15 PM 33.1 °F 32.0 °F 96% 30.47 in 10.0 mi North - - N/A   Overcast
12:35 PM 33.3 °F 32.0 °F 95% 30.46 in 10.0 mi North - - N/A   Overcast
12:55 PM 33.6 °F 32.0 °F 94% 30.46 in 10.0 mi North - - N/A   Overcast
1:15 PM 33.8 °F 32.0 °F 93% 30.45 in 10.0 mi North - - N/A   Overcast
1:35 PM 33.8 °F 32.0 °F 93% 30.45 in 10.0 mi North - - N/A   Overcast
1:55 PM 33.8 °F 32.0 °F 93% 30.44 in 10.0 mi North - - N/A   Overcast
2:15 PM 33.6 °F 32.0 °F 94% 30.45 in 10.0 mi North - - N/A   Overcast
2:35 PM 33.4 °F 32.0 °F 94% 30.45 in 10.0 mi North - - N/A   Overcast
2:55 PM 33.4 °F 32.0 °F 94% 30.45 in 10.0 mi North - - N/A   Overcast
3:15 PM 33.8 °F 32.0 °F 93% 30.44 in 10.0 mi North - - N/A   Overcast
3:35 PM 34.2 °F 32.0 °F 92% 30.44 in 10.0 mi North - - N/A   Overcast
3:55 PM 34.0 °F 30.9 °F 89% 30.45 in 10.0 mi North - - N/A   Overcast
4:15 PM 34.0 °F 31.1 °F 89% 30.46 in 10.0 mi North - - N/A   Overcast
4:35 PM 33.8 °F 31.1 °F 90% 30.45 in 10.0 mi North - - N/A   Overcast
4:55 PM 33.3 °F 30.9 °F 91% 30.47 in 10.0 mi North - - N/A   Overcast
5:15 PM 33.1 °F 30.6 °F 90% 30.47 in 10.0 mi North - - N/A   Overcast
5:35 PM 32.9 °F 30.7 °F 92% 30.48 in 10.0 mi North - - N/A   Overcast
5:55 PM 32.9 °F 30.6 °F 91% 30.48 in 10.0 mi North - - N/A   Overcast
6:15 PM 32.9 °F 30.7 °F 92% 30.49 in 10.0 mi North - - N/A   Overcast
6:35 PM 32.9 °F 30.6 °F 91% 30.50 in 10.0 mi North - - N/A   Overcast
6:55 PM 32.9 °F 30.4 °F 90% 30.50 in 10.0 mi North - - N/A   Overcast
7:15 PM 32.5 °F 30.6 °F 92% 30.50 in 10.0 mi North - - N/A   Overcast
7:35 PM 32.7 °F 30.2 °F 90% 30.51 in 10.0 mi North - - N/A   Overcast
7:55 PM 32.7 °F 29.7 °F 88% 30.51 in 10.0 mi North - - N/A   Overcast
8:15 PM 32.5 °F 29.1 °F 87% 30.50 in 10.0 mi North - - N/A   Overcast
8:35 PM 32.2 °F 28.9 °F 88% 30.49 in 10.0 mi North - - N/A   Overcast
8:55 PM 32.4 °F 29.5 °F 89% 30.49 in 10.0 mi North - - N/A   Overcast
9:15 PM 32.2 °F 29.3 °F 89% 30.49 in 10.0 mi North - - N/A   Overcast
9:35 PM 32.0 °F 28.6 °F 87% 30.49 in 10.0 mi North - - N/A   Overcast
9:55 PM 32.0 °F 28.2 °F 86% 30.49 in 10.0 mi North - - N/A   Overcast
10:15 PM 32.0 °F 28.4 °F 87% 30.49 in 10.0 mi North - - N/A   Overcast
10:35 PM 32.0 °F 28.6 °F 87% 30.48 in 10.0 mi North - - N/A   Overcast
10:55 PM 32.0 °F 29.1 °F 89% 30.48 in 10.0 mi North - - N/A   Overcast
11:15 PM 32.2 °F 29.3 °F 89% 30.48 in 10.0 mi North - - N/A   Overcast
11:35 PM 32.4 °F 29.3 °F 88% 30.48 in 10.0 mi North - - N/A   Overcast
11:55 PM 32.2 °F 29.3 °F 89% 30.46 in 10.0 mi North - - N/A   Overcast